User: anonymous   Login
Location: Karlovy Vary
(50.2170°N, 12.9000°E)
Time: 07:37:42
(UTC+02:00)
Language:

ISS - Orbit

View from above orbital plane
View from above orbital plane
View from above satellite
View from above satellite

Ground track
Ground track

The orbit data is extracted from the following two-line orbital elements,

1 25544U 98067A   15145.61325463  .00006740  00000-0  10492-3 0  9992
2 25544 051.6445 196.7435 0003868 342.9822 176.3851 15.55184844944527
Epoch (UTC): 25 May 2015 14:43:05
Eccentricity: 0.0003868
inclination: 51.6445°
perigee height: 399 km
apogee height: 404 km
right ascension of ascending node: 196.7435°
argument of perigee: 342.9822°
revolutions per day: 15.55184844
mean anomaly at epoch: 176.3851°
orbit number at epoch: 94452

The dashed part of the orbit path shows where the satellite is in the earth's shadow,  

DLR